False Pass, AK

8:19 PM HDT on June 23, 2017 (GMT -0900)
False Pass

Weather History for PAKF - November, 2012

Change the Weather History Date:

Tuesday, November 6, 2012

  Actual Average (PACD) Record (PACD)
Temperature  
Mean Temperature 32 °F -  
Max Temperature 34 °F 41 °F 52 °F (2013)
Min Temperature 24 °F 32 °F 17 °F (2008)
Degree Days  
Heating Degree Days 33    
Moisture  
Dew Point 22 °F    
Average Humidity 66    
Maximum Humidity 84    
Minimum Humidity 60    
Precipitation  
Precipitation 0.00 in - - ()
Sea Level Pressure  
Sea Level Pressure 30.57 in    
Wind  
Wind Speed 15 mph (WNW)    
Max Wind Speed 22 mph    
Max Gust Speed 37 mph    
Visibility 10 miles    
Events      
Averages and records for this station are not official NWS values.
T = Trace of Precipitation, MM = Missing Value Source: NWS Daily Summary

Daily Weather History Graph

Daily Weather History Graph

Search for Another Location

Airport or City:

Trip Planner

Search our weather history database for the weather conditions in past years. The results will help you decide how hot, cold, wet, or windy it might be!

Date:

Astronomy

Nov. 06, 2012 Rise Set
Actual Time 8:08 AM HST 5:05 PM HST
Civil Twilight 7:29 AM HST 5:44 PM HST
Nautical Twilight 6:45 AM HST 6:27 PM HST
Astronomical Twilight 6:03 AM HST 7:09 PM HST
Moon No Moon Rise 1:56 PM HST (11/6)
Length of Visible Light 10h 15m
Length of Day
8h 56m
Waning Gibbous, 51% of the Moon is Illuminated
Nov 6
Waning Gibbous
Nov 6
Last Quarter
Nov 13
New
Nov 20
First Quarter
Nov 28
Full

Hourly Weather History & Observations

Time (HST) Temp. Windchill Dew Point Humidity Pressure Visibility Wind Dir Wind Speed Gust Speed Precip Events Conditions
12:01 AM 33.1 °F 21.2 °F 21.9 °F 64% 30.54 in 10.0 mi WNW 20.7 mph 36.8 mph 0.00 in   Overcast
1:01 AM 33.1 °F 20.9 °F 21.0 °F 61% 30.55 in 10.0 mi West 21.9 mph 32.2 mph 0.00 in   Overcast
2:01 AM 33.1 °F 21.9 °F 21.9 °F 64% 30.56 in 10.0 mi NW 18.4 mph 25.3 mph 0.00 in   Overcast
3:01 AM 33.1 °F 22.6 °F 21.0 °F 61% 30.57 in 10.0 mi WNW 16.1 mph 35.7 mph 0.00 in   Overcast
4:01 AM 33.1 °F 23.0 °F 21.9 °F 64% 30.58 in 10.0 mi WNW 15.0 mph 23.0 mph 0.00 in   Overcast
5:01 AM 33.1 °F 22.6 °F 21.9 °F 64% 30.59 in 10.0 mi NW 16.1 mph 25.3 mph 0.00 in   Overcast
6:01 AM 33.1 °F 24.4 °F 21.9 °F 64% 30.59 in 10.0 mi NW 11.5 mph 24.2 mph 0.00 in   Overcast
7:01 AM 33.1 °F 22.2 °F 21.9 °F 64% 30.60 in 10.0 mi NW 17.3 mph 29.9 mph N/A   Overcast
8:01 AM 33.1 °F 22.6 °F 21.9 °F 64% 30.61 in 10.0 mi NW 16.1 mph 26.5 mph N/A   Overcast
9:01 AM 33.1 °F 23.4 °F 21.9 °F 64% 30.63 in 10.0 mi WNW 13.8 mph 26.5 mph N/A   Overcast
9:37 AM 33.8 °F 23.9 °F 21.2 °F 60% 30.34 in 10.0 mi NW 15.0 mph 23.0 mph N/A   Overcast
10:01 AM 33.8 °F 24.3 °F 21.2 °F 60% 30.35 in 10.0 mi West 13.8 mph 23.0 mph N/A   Overcast
11:01 AM 33.1 °F 23.0 °F 21.9 °F 64% 30.66 in 10.0 mi WNW 15.0 mph 18.4 mph N/A   Overcast
12:01 PM 34.0 °F 23.8 °F 21.9 °F 61% 30.66 in 10.0 mi WNW 16.1 mph 25.3 mph N/A   Overcast
1:01 PM 34.0 °F 23.8 °F 21.9 °F 61% 30.66 in 10.0 mi NW 16.1 mph 19.6 mph N/A   Overcast
2:01 PM 34.0 °F 23.0 °F 21.9 °F 61% 30.64 in 10.0 mi WNW 18.4 mph 24.2 mph N/A   Overcast
3:01 PM 33.1 °F 24.9 °F 21.9 °F 64% 30.63 in 10.0 mi WNW 10.4 mph 20.7 mph N/A   Scattered Clouds
3:39 PM 33.8 °F 25.8 °F 21.2 °F 60% 30.36 in 10.0 mi West 10.4 mph 18.4 mph N/A   Mostly Cloudy
3:50 PM 33.8 °F 25.3 °F 21.2 °F 60% 30.36 in 10.0 mi WNW 11.5 mph 23.0 mph N/A   Scattered Clouds
4:01 PM 32.0 °F 24.2 °F 21.9 °F 66% 30.66 in 10.0 mi West 9.2 mph - N/A   Scattered Clouds
5:01 PM 32.0 °F 24.8 °F 21.9 °F 66% 30.68 in 10.0 mi WNW 8.1 mph 17.3 mph N/A   Clear
6:01 PM 30.0 °F 22.4 °F 21.9 °F 72% 30.67 in 10.0 mi WNW 8.1 mph - N/A   Clear
7:01 PM 30.0 °F 21.7 °F 21.9 °F 72% 30.66 in 10.0 mi West 9.2 mph - N/A   Clear
8:01 PM 30.0 °F 22.4 °F 23.0 °F 75% 30.66 in 10.0 mi West 8.1 mph - N/A   Clear
9:01 PM 30.9 °F 23.5 °F 24.1 °F 76% 30.65 in 10.0 mi WNW 8.1 mph - N/A   Partly Cloudy
9:40 PM 30.2 °F 25.4 °F 23.0 °F 75% 30.35 in 10.0 mi WNW 4.6 mph - N/A   Mostly Cloudy
10:01 PM 30.0 °F 22.4 °F 23.0 °F 75% 30.63 in 10.0 mi WNW 8.1 mph - N/A   Mostly Cloudy
10:25 PM 30.2 °F 24.3 °F 24.8 °F 80% 30.35 in 10.0 mi West 5.8 mph - N/A   Scattered Clouds
11:01 PM 24.1 °F 16.0 °F 19.9 °F 84% 30.64 in 10.0 mi SSW 6.9 mph - N/A   Partly Cloudy